Date String (YYYY-MM-DD hh:mm:ss) UTC,Instrument flags,Ambient pressure (hPa),Sample flow (lpm),Bypass flow (lpm),Sample temperature (°C),Ambient temperature (°C),ASC tube jacket temperature (°C),LED temperature (°C),Box temperature (°C),Sample RH (%),Span deviation,Mass concentration (μg/m³),Mass concentration (μg/m³),Mass concentration (μg/m³)
DateTimeUTC,F1_M11,P_M11,Q1_M11,Q2_M11,T1_M11,T2_M11,T3_M11,T4_M11,T5_M11,U1_M11,ZSPAN_M11,X2_M11,X0_M11,X1_M11
2022-05-18 00:00:00,,0824.1,5.00,0.00,29.3,24.9,00.0,38.1,31.0,18.0,0000.0,0004.18,0013.20,0003.09
2022-05-18 00:01:00,,0824.1,5.00,0.00,29.2,25.4,00.0,38.1,30.9,18.2,0000.0,0004.18,0013.28,0003.10
2022-05-18 00:02:00,,0824.1,4.99,0.00,29.1,25.9,00.0,38.1,30.9,17.9,0000.0,0004.23,0012.89,0003.13
2022-05-18 00:03:00,,0824.1,5.00,0.00,29.1,26.4,00.0,38.1,30.9,18.1,0000.0,0004.29,0012.45,0003.15
2022-05-18 00:04:00,,0824.1,5.00,0.00,29.1,26.8,00.0,38.1,31.0,18.0,0000.0,0004.33,0012.23,0003.16
2022-05-18 00:05:00,,0824.1,4.99,0.00,29.1,27.1,00.0,38.1,31.0,18.0,0000.0,0004.34,0012.29,0003.18
2022-05-18 00:06:00,,0824.1,5.00,0.00,29.2,27.4,00.0,38.1,31.1,17.7,0000.0,0004.31,0011.73,0003.18
2022-05-18 00:07:00,,0824.0,4.99,0.00,29.2,27.6,00.0,38.2,31.1,17.6,0000.0,0004.36,0011.76,0003.20
2022-05-18 00:08:00,,0824.0,5.01,0.00,29.2,27.9,00.0,38.2,31.2,17.2,0000.0,0004.36,0012.04,0003.22
2022-05-18 00:09:00,,0824.1,4.99,0.00,29.3,28.0,00.0,38.2,31.2,17.5,0000.0,0004.37,0012.04,0003.24
2022-05-18 00:10:00,,0824.0,4.99,0.00,29.3,28.2,00.0,38.2,31.3,18.0,0000.0,0004.36,0012.22,0003.24
2022-05-18 00:11:00,,0824.0,5.00,0.00,29.3,28.3,00.0,38.2,31.3,17.8,0000.0,0004.42,0012.25,0003.25
2022-05-18 00:12:00,,0824.0,5.00,0.00,29.4,28.5,00.0,38.3,31.4,17.2,0000.0,0004.45,0012.14,0003.27
2022-05-18 00:13:00,,0824.1,5.00,0.00,29.4,28.6,00.0,38.3,31.4,17.0,0000.0,0004.44,0011.49,0003.27
2022-05-18 00:14:00,,0824.0,5.00,0.00,29.5,28.7,00.0,38.3,31.5,17.2,0000.0,0004.44,0011.47,0003.27
2022-05-18 00:15:00,,0824.1,5.00,0.00,29.5,28.6,00.0,38.3,31.5,17.2,0000.0,0004.45,0011.63,0003.26
2022-05-18 00:16:00,,0824.0,5.00,0.00,29.5,26.5,00.0,38.3,31.4,17.5,0000.0,0004.49,0011.41,0003.25
2022-05-18 00:17:00,,0824.0,5.00,0.00,29.5,24.7,00.0,38.2,31.2,17.5,0000.0,0004.52,0011.27,0003.25
2022-05-18 00:18:00,,0824.0,5.00,0.00,29.4,25.0,00.0,38.2,31.1,17.3,0000.0,0004.50,0011.41,0003.24
2022-05-18 00:19:00,,0824.0,5.00,0.00,29.3,25.5,00.0,38.2,31.0,17.5,0000.0,0004.51,0011.29,0003.23
2022-05-18 00:20:00,,0824.0,5.00,0.00,29.3,26.0,00.0,38.2,31.0,17.4,0000.0,0004.52,0011.56,0003.23
2022-05-18 00:21:00,,0824.0,4.99,0.00,29.2,26.4,00.0,38.2,31.0,16.8,0000.0,0004.52,0011.30,0003.22
2022-05-18 00:22:00,,0824.0,5.00,0.00,29.2,26.8,00.0,38.2,31.1,17.2,0000.0,0004.49,0011.30,0003.21
2022-05-18 00:23:00,,0824.0,5.00,0.00,29.2,27.2,00.0,38.2,31.1,17.1,0000.0,0004.47,0011.21,0003.20
2022-05-18 00:24:00,,0824.1,5.01,0.00,29.3,27.5,00.0,38.2,31.2,16.6,0000.0,0004.46,0011.45,0003.19
2022-05-18 00:25:00,,0824.1,5.00,0.00,29.3,27.7,00.0,38.2,31.2,16.6,0000.0,0004.46,0011.53,0003.19
2022-05-18 00:26:00,,0824.1,4.99,0.00,29.3,28.0,00.0,38.3,31.3,17.6,0000.0,0004.43,0011.50,0003.19
2022-05-18 00:27:00,,0824.1,5.00,0.00,29.4,28.2,00.0,38.3,31.3,18.3,0000.0,0004.41,0011.56,0003.17
2022-05-18 00:28:00,,0824.2,5.01,0.00,29.4,28.3,00.0,38.3,31.4,18.1,0000.0,0004.42,0012.37,0003.16
2022-05-18 00:29:00,,0824.2,4.99,0.00,29.5,28.4,00.0,38.3,31.4,18.3,0000.0,0004.44,0012.07,0003.15
2022-05-18 00:30:00,,0824.2,5.00,0.00,29.5,28.6,00.0,38.4,31.5,18.3,0000.0,0004.43,0012.50,0003.13
2022-05-18 00:31:00,,0824.3,5.00,0.00,29.5,28.5,00.0,38.4,31.5,19.0,0000.0,0004.39,0012.47,0003.10
2022-05-18 00:32:00,,0824.3,5.01,0.00,29.5,26.4,00.0,38.3,31.4,19.2,0000.0,0004.35,0012.62,0003.04
2022-05-18 00:33:00,,0824.3,5.00,0.00,29.5,24.5,00.0,38.2,31.2,19.1,0000.0,0004.30,0012.58,0002.98
2022-05-18 00:34:00,,0824.3,4.99,0.00,29.4,24.8,00.0,38.2,31.1,18.4,0000.0,0004.28,0012.45,0002.92
2022-05-18 00:35:00,,0824.3,4.98,0.00,29.3,25.3,00.0,38.2,31.0,18.4,0000.0,0004.19,0011.92,0002.85
2022-05-18 00:36:00,,0824.3,5.01,0.00,29.2,25.8,00.0,38.2,31.0,18.3,0000.0,0004.10,0011.98,0002.78
2022-05-18 00:37:00,,0824.3,5.00,0.00,29.2,26.3,00.0,38.2,31.0,18.1,0000.0,0004.09,0011.85,0002.73
2022-05-18 00:38:00,,0824.3,5.00,0.00,29.2,26.7,00.0,38.2,31.0,18.3,0000.0,0004.05,0011.62,0002.71
2022-05-18 00:39:00,,0824.3,4.99,0.00,29.2,27.1,00.0,38.2,31.1,18.1,0000.0,0003.95,0011.07,0002.67
2022-05-18 00:40:00,,0824.4,5.01,0.00,29.2,27.4,00.0,38.2,31.1,18.4,0000.0,0003.85,0010.96,0002.62
2022-05-18 00:41:00,,0824.4,4.99,0.00,29.3,27.7,00.0,38.2,31.2,18.6,0000.0,0003.82,0011.94,0002.60
2022-05-18 00:42:00,,0824.5,5.00,0.00,29.3,27.9,00.0,38.2,31.2,18.8,0000.0,0003.84,0011.70,0002.58
2022-05-18 00:43:00,,0824.4,4.99,0.00,29.3,28.1,00.0,38.3,31.3,19.1,0000.0,0003.84,0011.50,0002.58
2022-05-18 00:44:00,,0824.6,5.00,0.00,29.4,28.2,00.0,38.3,31.3,19.3,0000.0,0003.80,0011.13,0002.56
2022-05-18 00:45:00,,0824.6,5.00,0.00,29.4,28.4,00.0,38.3,31.4,19.4,0000.0,0003.78,0011.33,0002.56
2022-05-18 00:46:00,,0824.7,5.00,0.00,29.5,28.5,00.0,38.3,31.4,19.5,0000.0,0003.80,0011.76,0002.58
2022-05-18 00:47:00,,0824.6,5.00,0.00,29.5,28.6,00.0,38.4,31.5,19.5,0000.0,0003.81,0011.43,0002.61
2022-05-18 00:48:00,,0824.6,5.00,0.00,29.6,28.6,00.0,38.4,31.5,19.6,0000.0,0003.78,0011.54,0002.64
2022-05-18 00:49:00,,0824.6,5.00,0.00,29.6,26.6,00.0,38.3,31.4,19.6,0000.0,0003.79,0012.15,0002.66
2022-05-18 00:50:00,,0824.7,5.01,0.00,29.5,25.6,00.0,38.3,31.3,19.8,0000.0,0003.88,0011.87,0002.72
2022-05-18 00:51:00,,0824.6,4.99,0.00,29.5,25.9,00.0,38.3,31.2,20.0,0000.0,0003.99,0012.19,0002.79
2022-05-18 00:52:00,,0824.6,5.01,0.00,29.4,26.2,00.0,38.3,31.1,20.3,0000.0,0004.06,0011.15,0002.84
2022-05-18 00:53:00,,0824.6,5.00,0.00,29.4,26.6,00.0,38.3,31.2,20.6,0000.0,0004.15,0011.54,0002.91
2022-05-18 00:54:00,,0824.6,5.00,0.00,29.4,27.0,00.0,38.3,31.2,20.5,0000.0,0004.25,0012.26,0003.00
2022-05-18 00:55:00,,0824.6,4.99,0.00,29.4,27.4,00.0,38.3,31.2,19.9,0000.0,0004.34,0012.60,0003.11
2022-05-18 00:56:00,,0824.6,5.00,0.00,29.4,27.6,00.0,38.3,31.3,19.9,0000.0,0004.42,0013.72,0003.17
2022-05-18 00:57:00,,0824.6,5.02,0.00,29.4,27.9,00.0,38.3,31.3,19.4,0000.0,0004.48,0015.05,0003.21
2022-05-18 00:58:00,,0824.6,5.01,0.00,29.5,28.1,00.0,38.4,31.4,19.4,0000.0,0004.58,0015.33,0003.26
2022-05-18 00:59:00,,0824.6,4.99,0.00,29.5,28.3,00.0,38.4,31.4,19.2,0000.0,0004.66,0015.79,0003.29
